Погода в Сан-Хуане-де-Аликанте

Испания     38°24′06″N   0°25′58″E
темп.,
°C
ветер,
м/с
пор.,
м/с
влажн.,
%
обл.,
%
осадки,
мм/ч
давл.,
гПа
погр.,
м
17 сентября, пт
пт1723:00+22ююз22709 0.7 1019264
02:00+21зсз11735 0.8 101881
05:00+20юз11718 0.1 101658
08:00+20зюз117427 0.1 101659
11:00+23ююз225634 0.0 1017649
14:00+26ю445036 0.0 10151417
17:00+25ю435865 0.4 1014871
20:00+22ю32717 0.5 1014514
18 сентября, сб
сб1823:00+21ююз23790 0.1 1016322
02:00+20зюз228165 0.1 1015137
05:00+20зюз2273100 0.0 101479
08:00+20зсз22639 0.0 101445
11:00+26зюз22370 0.0 1014459
14:00+28ю65390 0.0 10141415
17:00+26ю54510 0.0 1013680
20:00+23ю33650 0.0 1013396
19 сентября, вс
вс1923:00+22зюз11715 0.0 1015105
02:00+22сз11590 0.0 101451
05:00+22св22550 0.0 101542
08:00+20ссз11786 0.0 1016115
11:00+24вюв22576 0.0 1018819
14:00+25юв435211 0.0 10171052
17:00+24юв435119 0.1 1016688
20:00+22юв32590 0.1 1016431
20 сентября, пн
пн2023:00+21юв11680 0.0 1017151
02:00+20ссв117012 0.0 1016131
05:00+19ссв11750 0.0 1015109
08:00+19ссз11780 0.0 1016114
11:00+22юв11600 0.0 1016806
14:00+24ююв435544 0.1 10161272
17:00+23вюв326570 1.3 1014929
20:00+21в336784 2.2 1015306
21 сентября, вт
вт2123:00+19ссв4574100 6.8 1018473
02:00+18с4566100 7.9 1018470
05:00+17ссз237130 0.5 1017232
08:00+16ссз22764 2.2 1017166
11:00+19ссв33502 0.1 1018863
14:00+21в225042 0.1 10181475
17:00+22в234575 0.0 10171497
20:00+20ссв34450 0.1 1018493